RADUGA 4 [-]

Last updated on Jan. 18, 2020, 4:38 a.m. UTC

1 10987U 78073A   20017.40951916  .00000138  00000-0  00000+0 0  9996
2 10987  10.4400 307.6343 0012342 340.5246  18.7073  1.00233769 96099
UTC
Height (km)
Latitude
Longitude
Inclination
Orbital Period
UTC large
Height (km)
Speed (km/s)
/
Latitude / Longitude
Inclination (degrees)
Orbital Period (minutes)
Azimuth
Elevation
Range (km)
Doppler Factor
iOS Compass Heading
iOS Angle

Next 30 passes for location: Hong Kong

Rise time Rise Azimuth (degrees) Set time Set Azimuth (degrees) Duration Max altitude (degrees)

No matching passes for this satellites